Date String (YYYY-MM-DD hh:mm:ss) UTC,Instrument flags,absolute air pressure of the measurement (hPa),sample flow rate (lpm),inlet stack bypass flow (lpm),air temperature of the measurement (°C),ambient temperature measured by the external sensor (°C),aerosol sample conditioner tube jacket temperature (°C),OPC LED temperature (°C),internal box temperature (°C),relative humidity of the measurement (%),span deviation,mass concentration of particles derived from Lorenz-Mie calculation of OPC scattering (μg/m³),mass concentration of particles derived from Lorenz-Mie calculation of OPC scattering (μg/m³),mass concentration of particles derived from Lorenz-Mie calculation of OPC scattering (μg/m³)
DateTimeUTC,F1_M11,P_M11,Q1_M11,Q2_M11,T1_M11,T2_M11,T3_M11,T4_M11,T5_M11,U1_M11,ZSPAN_M11,X2_M11,X0_M11,X1_M11
2024-01-23 21:00:00,SystemResetWarning,0824.4,5.00,000.00,026.2,025.5,000.0,034.4,027.6,14.7,0002.3,0011.46,0019.61,0010.69
2024-01-23 21:01:00,SystemResetWarning,0824.4,5.00,000.00,026.2,025.5,000.0,034.4,027.6,14.5,0002.0,0011.36,0019.09,0010.60
2024-01-23 21:02:00,SystemResetWarning,0824.3,5.00,000.00,026.2,025.5,000.0,034.4,027.6,14.5,0001.7,0011.27,0019.19,0010.54
2024-01-23 21:03:00,SystemResetWarning,0824.3,5.00,000.00,026.2,025.5,000.0,034.4,027.6,14.5,0002.0,0011.21,0020.03,0010.50
2024-01-23 21:04:00,SystemResetWarning,0824.3,5.00,000.00,026.2,025.5,000.0,034.4,027.6,14.5,0001.7,0011.21,0019.92,0010.49
2024-01-23 21:05:00,SystemResetWarning,0824.3,5.00,000.00,026.2,025.5,000.0,034.4,027.6,14.5,0001.3,0011.29,0019.40,0010.55
2024-01-23 21:06:00,SystemResetWarning,0824.3,5.00,000.00,026.2,025.6,000.0,034.4,027.7,14.5,0001.4,0011.37,0020.22,0010.63
2024-01-23 21:07:00,SystemResetWarning,0824.2,5.00,000.00,026.2,025.6,000.0,034.4,027.7,14.6,0001.8,0011.36,0020.32,0010.64
2024-01-23 21:08:00,SystemResetWarning,0824.2,5.00,000.00,026.3,025.6,000.0,034.5,027.6,14.6,0002.1,0011.34,0020.96,0010.64
2024-01-23 21:09:00,SystemResetWarning,0824.2,5.00,000.00,026.3,025.6,000.0,034.5,027.7,14.6,0002.0,0011.33,0021.58,0010.64
2024-01-23 21:10:00,SystemResetWarning,0824.2,5.00,000.00,026.3,025.6,000.0,034.5,027.7,14.6,0002.0,0011.37,0021.77,0010.68
2024-01-23 21:11:00,SystemResetWarning,0824.1,5.00,000.00,026.3,025.6,000.0,034.5,027.7,14.6,0002.2,0011.39,0021.86,0010.72
2024-01-23 21:12:00,SystemResetWarning,0824.1,5.00,000.00,026.3,025.6,000.0,034.5,027.7,14.6,0002.4,0011.46,0021.44,0010.79
2024-01-23 21:13:00,SystemResetWarning,0824.1,5.00,000.00,026.3,025.6,000.0,034.5,027.7,14.7,0002.7,0011.56,0021.53,0010.87
2024-01-23 21:14:00,SystemResetWarning,0824.1,5.00,000.00,026.3,025.6,000.0,034.5,027.7,14.7,0002.8,0011.60,0020.99,0010.90
2024-01-23 21:15:00,SystemResetWarning,0824.1,5.00,000.00,026.3,025.6,000.0,034.5,027.7,14.8,0003.0,0011.67,0020.94,0010.97
2024-01-23 21:16:00,SystemResetWarning,0824.1,5.00,000.00,026.3,025.6,000.0,034.5,027.7,14.7,0003.2,0011.76,0021.26,0011.03
2024-01-23 21:17:00,SystemResetWarning,0824.2,5.00,000.00,026.3,025.7,000.0,034.6,027.8,14.6,0003.4,0011.81,0021.39,0011.08
2024-01-23 21:18:00,SystemResetWarning,0824.2,5.00,000.00,026.4,025.7,000.0,034.6,027.7,14.6,0003.4,0011.85,0021.29,0011.12
2024-01-23 21:19:00,SystemResetWarning,0824.1,5.01,000.00,026.3,025.7,000.0,034.6,027.7,14.7,0003.6,0011.91,0020.77,0011.18
2024-01-23 21:20:00,SystemResetWarning,0824.1,5.00,000.00,026.4,025.7,000.0,034.6,027.8,15.0,0003.6,0011.96,0019.71,0011.24
2024-01-23 21:21:00,SystemResetWarning,0824.2,5.01,000.00,026.4,025.7,000.0,034.6,027.8,14.9,0003.7,0011.99,0019.32,0011.30
2024-01-23 21:22:00,SystemResetWarning,0824.2,5.00,000.00,026.4,025.7,000.0,034.6,027.8,14.7,0003.6,0012.06,0018.98,0011.34
2024-01-23 21:23:00,SystemResetWarning,0824.2,4.99,000.00,026.4,025.7,000.0,034.6,027.8,14.6,0003.3,0012.08,0019.34,0011.34
2024-01-23 21:24:00,SystemResetWarning,0824.1,5.00,000.00,026.4,025.7,000.0,034.6,027.8,14.5,0003.3,0012.06,0019.62,0011.32
2024-01-23 21:25:00,SystemResetWarning,0824.2,4.99,000.00,026.4,025.7,000.0,034.6,027.8,14.6,0003.0,0012.07,0019.51,0011.33
2024-01-23 21:26:00,SystemResetWarning,0824.1,5.00,000.00,026.4,025.8,000.0,034.6,027.8,14.7,0002.7,0012.05,0019.23,0011.32
2024-01-23 21:27:00,SystemResetWarning,0824.2,5.01,000.00,026.4,025.8,000.0,034.7,027.8,14.6,0002.5,0012.03,0018.97,0011.30
2024-01-23 21:28:00,SystemResetWarning,0824.2,5.00,000.00,026.5,025.8,000.0,034.7,027.9,14.5,0002.4,0012.02,0019.24,0011.30
2024-01-23 21:29:00,SystemResetWarning,0824.2,5.00,000.00,026.5,025.8,000.0,034.7,027.9,14.5,0002.5,0012.05,0018.85,0011.31
2024-01-23 21:30:00,SystemResetWarning,0824.2,5.00,000.00,026.5,025.8,000.0,034.7,027.9,14.6,0002.2,0012.04,0020.06,0011.28
2024-01-23 21:31:00,SystemResetWarning,0824.2,5.00,000.00,026.5,025.8,000.0,034.7,027.9,14.5,0002.1,0012.07,0020.69,0011.28
2024-01-23 21:32:00,SystemResetWarning,0824.2,5.00,000.00,026.5,025.9,000.0,034.7,028.0,14.5,0002.1,0012.12,0020.90,0011.30
2024-01-23 21:33:00,SystemResetWarning,0824.2,5.00,000.00,026.5,025.9,000.0,034.7,028.0,14.4,0002.2,0012.14,0020.21,0011.32
2024-01-23 21:34:00,SystemResetWarning,0824.2,5.00,000.00,026.6,025.9,000.0,034.7,028.0,14.5,0002.2,0012.22,0020.17,0011.38
2024-01-23 21:35:00,SystemResetWarning,0824.1,5.00,000.00,026.6,025.9,000.0,034.8,028.0,14.4,0002.2,0012.27,0019.70,0011.43
2024-01-23 21:36:00,SystemResetWarning,0824.1,5.00,000.00,026.6,025.9,000.0,034.8,028.0,14.4,0002.3,0012.28,0019.71,0011.48
2024-01-23 21:37:00,SystemResetWarning,0824.1,5.00,000.00,026.6,026.0,000.0,034.8,028.1,14.5,0002.3,0012.34,0021.10,0011.54
2024-01-23 21:38:00,SystemResetWarning,0824.1,5.00,000.00,026.6,026.0,000.0,034.8,028.1,14.4,0002.4,0012.38,0021.77,0011.57
2024-01-23 21:39:00,SystemResetWarning,0824.1,5.00,000.00,026.7,026.0,000.0,034.8,028.1,14.4,0002.7,0012.45,0021.68,0011.60
2024-01-23 21:40:00,SystemResetWarning,0824.1,5.00,000.00,026.7,026.0,000.0,034.8,028.1,14.3,0002.7,0012.46,0021.48,0011.62
2024-01-23 21:41:00,SystemResetWarning,0824.1,5.00,000.00,026.7,026.0,000.0,034.8,028.1,14.3,0002.9,0012.48,0020.95,0011.65
2024-01-23 21:42:00,SystemResetWarning,0824.1,5.00,000.00,026.7,026.0,000.0,034.9,028.1,14.4,0003.0,0012.50,0019.84,0011.68
2024-01-23 21:43:00,SystemResetWarning,0824.2,5.00,000.00,026.7,026.1,000.0,034.9,028.2,14.4,0002.9,0012.43,0020.98,0011.66
2024-01-23 21:44:00,SystemResetWarning,0824.2,5.00,000.00,026.7,026.1,000.0,034.9,028.2,14.3,0002.8,0012.41,0021.74,0011.64
2024-01-23 21:45:00,SystemResetWarning,0824.3,5.00,000.00,026.8,026.1,000.0,034.9,028.2,14.2,0002.7,0012.38,0021.56,0011.61
2024-01-23 21:46:00,SystemResetWarning,0824.3,5.00,000.00,026.8,026.1,000.0,034.9,028.2,14.3,0002.7,0012.35,0022.11,0011.60
2024-01-23 21:47:00,SystemResetWarning,0824.3,5.01,000.00,026.8,026.1,000.0,034.9,028.2,14.3,0002.5,0012.34,0022.20,0011.57
2024-01-23 21:48:00,SystemResetWarning,0824.3,5.00,000.00,026.8,026.1,000.0,035.0,028.2,14.2,0002.5,0012.32,0021.25,0011.54
2024-01-23 21:49:00,SystemResetWarning,0824.3,5.00,000.00,026.8,026.2,000.0,035.0,028.3,14.2,0002.4,0012.30,0020.20,0011.50
2024-01-23 21:50:00,SystemResetWarning,0824.3,4.99,000.00,026.9,026.2,000.0,035.0,028.3,14.1,0002.1,0012.24,0019.71,0011.47
2024-01-23 21:51:00,SystemResetWarning,0824.2,4.99,000.00,026.9,026.2,000.0,035.0,028.3,14.1,0002.0,0012.23,0019.82,0011.46
2024-01-23 21:52:00,SystemResetWarning,0824.3,5.00,000.00,026.9,026.2,000.0,035.0,028.3,14.1,0001.7,0012.21,0019.90,0011.44
2024-01-23 21:53:00,SystemResetWarning,0824.3,5.00,000.00,026.9,026.2,000.0,035.0,028.3,14.1,0001.6,0012.20,0019.89,0011.42
2024-01-23 21:54:00,SystemResetWarning,0824.3,5.00,000.00,026.9,026.3,000.0,035.1,028.3,14.2,0001.5,0012.19,0019.00,0011.39
2024-01-23 21:55:00,SystemResetWarning,0824.3,5.01,000.00,026.9,026.3,000.0,035.1,028.4,14.0,0001.4,0012.16,0018.66,0011.35
2024-01-23 21:56:00,SystemResetWarning,0824.3,5.00,000.00,027.0,025.9,000.0,035.1,028.6,14.0,0001.5,0012.13,0018.67,0011.32
2024-01-23 21:57:00,SystemResetWarning,0824.3,5.00,000.00,027.0,024.3,000.0,035.1,028.4,14.0,0001.5,0012.10,0018.48,0011.27
2024-01-23 21:58:00,SystemResetWarning,0824.3,5.01,000.00,026.9,022.8,000.0,035.0,028.1,14.0,0001.6,0012.10,0018.09,0011.24
2024-01-23 21:59:00,SystemResetWarning,0824.3,5.01,000.00,026.7,022.6,000.0,035.0,027.7,14.1,0001.8,0012.08,0018.18,0011.21
